Newport, Oregon, United States (97365)
Lat: 44.64N, Lon: 124.05W
Wx Zone: ORZ002
Local Info
Past Weather Observations for Today

NOTE: This archive is for the closest National Weather Service station to Newport. Information may differ from the station used for current weather conditions.

Click here for Long-term Archive

Time Weather Temperature Dewpoint Humidity Pressure Winds Precip Visibility
22:55
Overcast
52°F / 11°C 50°F / 10°C 94% 30.21 in
(1023 mb)
Calm - 10SM
22:35
Overcast
52°F / 11°C 50°F / 10°C 94% 30.21 in
(1023 mb)
Calm - 10SM
22:15
Overcast
52°F / 11°C 48°F / 9°C 88% 30.21 in
(1023 mb)
Calm - 10SM
21:55
Overcast
52°F / 11°C 50°F / 10°C 94% 30.24 in
(1024 mb)
Calm - 10SM
21:35
Overcast
52°F / 11°C 50°F / 10°C 94% 30.24 in
(1024 mb)
Calm - 10SM
21:15
Overcast
52°F / 11°C 50°F / 10°C 94% 30.24 in
(1024 mb)
Calm - 10SM
20:55
Overcast
52°F / 11°C 50°F / 10°C 94% 30.24 in
(1024 mb)
Calm - 10SM
20:35
Overcast
52°F / 11°C 50°F / 10°C 94% 30.24 in
(1024 mb)
Calm - 10SM
20:15
Overcast
52°F / 11°C 50°F / 10°C 94% 30.24 in
(1024 mb)
Calm - 10SM
19:55
Overcast
52°F / 11°C 50°F / 10°C 94% 30.24 in
(1024 mb)
Calm - 10SM
19:35
Overcast
52°F / 11°C 50°F / 10°C 94% 30.24 in
(1024 mb)
WNW 3.5 mph
(WNW 6 kph)
- 7SM
19:15
Overcast
52°F / 11°C 50°F / 10°C 94% 30.24 in
(1024 mb)
Calm - 7SM
18:55
Overcast
52°F / 11°C 50°F / 10°C 94% 30.24 in
(1024 mb)
NNW 3.5 mph
(NNW 6 kph)
- 7SM
18:35
Overcast
52°F / 11°C 50°F / 10°C 94% 30.24 in
(1024 mb)
NNW 3.5 mph
(NNW 6 kph)
- 7SM
18:15
Overcast
52°F / 11°C 50°F / 10°C 94% 30.24 in
(1024 mb)
Calm - 10SM
17:55
Overcast
52°F / 11°C 50°F / 10°C 94% 30.24 in
(1024 mb)
Calm - 10SM
17:35
Overcast
52°F / 11°C 50°F / 10°C 94% 30.24 in
(1024 mb)
WNW 4.6 mph
(WNW 7 kph)
- 7SM
17:15
Overcast
52°F / 11°C 50°F / 10°C 94% 30.24 in
(1024 mb)
W 3.5 mph
(W 6 kph)
- 7SM
16:55
Overcast
54°F / 12°C 50°F / 10°C 88% 30.24 in
(1024 mb)
NW 5.8 mph
(NW 9 kph)
- 7SM
16:35
Mostly Cloudy
54°F / 12°C 50°F / 10°C 88% 30.24 in
(1024 mb)
NW 5.8 mph
(NW 9 kph)
- 10SM
16:15
Mostly Cloudy
54°F / 12°C 50°F / 10°C 88% 30.27 in
(1025 mb)
WNW 5.8 mph
(WNW 9 kph)
- 10SM
15:55
Mostly Cloudy
54°F / 12°C 50°F / 10°C 88% 30.27 in
(1025 mb)
WNW 5.8 mph
(WNW 9 kph)
- 10SM
15:35
Mostly Cloudy
54°F / 12°C 50°F / 10°C 88% 30.27 in
(1025 mb)
NW 6.9 mph
(NW 11 kph)
- 7SM
15:15
Mostly Cloudy
55°F / 13°C 52°F / 11°C 88% 30.27 in
(1025 mb)
WNW 6.9 mph
(WNW 11 kph)
- 10SM
14:55
Mostly Cloudy
55°F / 13°C 52°F / 11°C 88% 30.27 in
(1025 mb)
NW 5.8 mph
(NW 9 kph)
- 7SM
14:35
Clear
54°F / 12°C 50°F / 10°C 88% N/A WNW 5.8 mph
(WNW 9 kph)
- 10SM
14:15
Clear
55°F / 13°C 50°F / 10°C 82% 30.27 in
(1025 mb)
WNW 5.8 mph
(WNW 9 kph)
- 7SM
13:55
Clear
55°F / 13°C 50°F / 10°C 82% 30.3 in
(1026 mb)
W 5.8 mph
(W 9 kph)
- 7SM
13:35
Clear
55°F / 13°C 48°F / 9°C 77% 30.3 in
(1026 mb)
SSW 4.6 mph
(SSW 7 kph)
- 7SM
13:15
Clear
55°F / 13°C 46°F / 8°C 72% 30.3 in
(1026 mb)
W 4.6 mph
(W 7 kph)
- 10SM
12:55
Clear
55°F / 13°C 48°F / 9°C 77% 30.3 in
(1026 mb)
W 6.9 mph
(W 11 kph)
- 10SM
12:35
Clear
55°F / 13°C 46°F / 8°C 72% 30.3 in
(1026 mb)
W 5.8 mph
(W 9 kph)
- 10SM
12:15
Clear
55°F / 13°C 46°F / 8°C 72% 30.3 in
(1026 mb)
W 5.8 mph
(W 9 kph)
- 10SM
11:55
Clear
55°F / 13°C 43°F / 6°C 63% 30.33 in
(1027 mb)
SSW 5.8 mph
(SSW 9 kph)
- 10SM
11:35
Clear
55°F / 13°C 45°F / 7°C 67% 30.33 in
(1027 mb)
SSW 5.8 mph
(SSW 9 kph)
- 10SM
11:15
Clear
55°F / 13°C 46°F / 8°C 72% 30.33 in
(1027 mb)
W 6.9 mph
(W 11 kph)
- 7SM
10:55
Clear
55°F / 13°C 45°F / 7°C 67% 30.33 in
(1027 mb)
Calm - 7SM
10:35
Clear
55°F / 13°C 45°F / 7°C 67% 30.33 in
(1027 mb)
Calm - 10SM
10:15
Clear
54°F / 12°C 45°F / 7°C 72% 30.33 in
(1027 mb)
Calm - 7SM
09:55
Clear
54°F / 12°C 45°F / 7°C 72% 30.33 in
(1027 mb)
W 4.6 mph
(W 7 kph)
- 7SM
09:35
Clear
Hazy
54°F / 12°C 46°F / 8°C 77% 30.33 in
(1027 mb)
SSW 5.8 mph
(SSW 9 kph)
- 5SM
09:15
Clear
54°F / 12°C 46°F / 8°C 77% 30.33 in
(1027 mb)
ENE 3.5 mph
(ENE 6 kph)
- 10SM
08:55
Clear
52°F / 11°C 48°F / 9°C 88% 30.33 in
(1027 mb)
E 4.6 mph
(E 7 kph)
- 10SM
08:35
Clear
50°F / 10°C 48°F / 9°C 94% 30.33 in
(1027 mb)
ENE 3.5 mph
(ENE 6 kph)
- 10SM
08:15
Clear
48°F / 9°C 46°F / 8°C 94% 30.33 in
(1027 mb)
ENE 3.5 mph
(ENE 6 kph)
- 10SM
07:55
Clear
45°F / 7°C 45°F / 7°C 100% 30.33 in
(1027 mb)
E 3.5 mph
(E 6 kph)
- 10SM
07:35
Clear
45°F / 7°C 43°F / 6°C 93% 30.33 in
(1027 mb)
ENE 3.5 mph
(ENE 6 kph)
- 10SM
07:15
Clear
43°F / 6°C 43°F / 6°C 100% 30.33 in
(1027 mb)
E 4.6 mph
(E 7 kph)
- 10SM
06:55
Clear
43°F / 6°C 41°F / 5°C 93% 30.33 in
(1027 mb)
E 4.6 mph
(E 7 kph)
- 10SM
06:35
Clear
41°F / 5°C 41°F / 5°C 100% 30.33 in
(1027 mb)
E 3.5 mph
(E 6 kph)
- 10SM
06:15
Clear
41°F / 5°C 41°F / 5°C 100% 30.33 in
(1027 mb)
E 3.5 mph
(E 6 kph)
- 10SM
05:55
Clear
Fog And Mist
41°F / 5°C 41°F / 5°C 100% 30.33 in
(1027 mb)
E 6.9 mph
(E 11 kph)
- 5SM
05:35
Clear
41°F / 5°C 39°F / 4°C 93% 30.33 in
(1027 mb)
E 5.8 mph
(E 9 kph)
- 10SM
05:15
Clear
41°F / 5°C 41°F / 5°C 100% 30.33 in
(1027 mb)
E 3.5 mph
(E 6 kph)
- 10SM
04:55
Clear
41°F / 5°C 41°F / 5°C 100% 30.33 in
(1027 mb)
E 5.8 mph
(E 9 kph)
- 10SM
04:35
Clear
41°F / 5°C 41°F / 5°C 100% 30.33 in
(1027 mb)
E 3.5 mph
(E 6 kph)
- 10SM
04:15
Clear
41°F / 5°C 41°F / 5°C 100% 30.33 in
(1027 mb)
E 4.6 mph
(E 7 kph)
- 10SM
03:55
Clear
Fog And Mist
41°F / 5°C 39°F / 4°C 93% 30.33 in
(1027 mb)
Calm - 5SM
03:35
Clear
43°F / 6°C 43°F / 6°C 100% 30.33 in
(1027 mb)
Calm - 10SM
03:15
Clear
43°F / 6°C 43°F / 6°C 100% 30.33 in
(1027 mb)
ENE 3.5 mph
(ENE 6 kph)
- 10SM
02:55
Clear
43°F / 6°C 43°F / 6°C 100% 30.33 in
(1027 mb)
Calm - 10SM
02:35
Clear
45°F / 7°C 45°F / 7°C 100% 30.33 in
(1027 mb)
Calm - 10SM
02:15
Clear
45°F / 7°C 45°F / 7°C 100% 30.33 in
(1027 mb)
E 6.9 mph
(E 11 kph)
- 10SM
01:55
Clear
45°F / 7°C 43°F / 6°C 93% 30.36 in
(1028 mb)
ESE 3.5 mph
(ESE 6 kph)
- 10SM
01:35
Clear
45°F / 7°C 45°F / 7°C 100% 30.36 in
(1028 mb)
Calm - 10SM
01:15
Clear
45°F / 7°C 45°F / 7°C 100% 30.36 in
(1028 mb)
Calm - 10SM
00:55
Clear
45°F / 7°C 45°F / 7°C 100% 30.36 in
(1028 mb)
E 4.6 mph
(E 7 kph)
- 10SM
00:35
Clear
45°F / 7°C 45°F / 7°C 100% 30.36 in
(1028 mb)
Calm - 10SM
00:15
Clear
45°F / 7°C 43°F / 6°C 93% 30.36 in
(1028 mb)
Calm - 10SM
Time Weather Temperature Dewpoint Humidity Pressure Winds Precip Visibility


Weather for websites

WeatherForYou.com, LLC is not responsible for any damages or problems caused by this service. Current weather conditions are obtained from the closest station including government and personal stations which may have varying degrees of accuracy. Weather forecasts are derived from the NOAA NDFD. Like all things, this site belongs to Jesus Christ... He just trusts me to maintain it. If you have any questions or comments email webmaster@weatherforyou.com

Copyright © 2015, WeatherForYou.com LLC. All rights reserved.